When you browse on this site, cookies collect data to enhance your experience and personalize the content and advertising you see.
Visit our Privacy Policy to learn more. By continuing to use the site, you agree to this use of cookies and data.
  • In Netherlands
  • List of Countries
  • For 7 days
  • Water Temperature
  • Satellite Maps
  • Weather Map
  • Weather Widgets
  • user-avatar
    Login

    Hourly Weather Armawir

    Today, 19 May, Sunday

    Time Temperature Precipitation Wind Pressure Humidity
    00:00 +20°C° 0.1 mm 3 mps 686 mmHg 45%
    01:00 +19°C° 0.1 mm 2 mps 686 mmHg 46%
    02:00 +19°C° 0.1 mm 2 mps 685 mmHg 48%
    03:00 +19°C° 0 mm 1 mps 685 mmHg 43%
    04:00 +20°C° 0 mm 1 mps 685 mmHg 44%
    05:00 +19°C° 0 mm 2 mps 685 mmHg 44%
    06:00 +20°C° 0 mm 2 mps 686 mmHg 45%
    07:00 +23°C° 0 mm 2 mps 685 mmHg 40%
    08:00 +24°C° 0 mm 3 mps 685 mmHg 35%
    09:00 +26°C° 0 mm 3 mps 685 mmHg 31%
    10:00 +28°C° 0 mm 3 mps 685 mmHg 29%
    11:00 +29°C° 0 mm 3 mps 686 mmHg 27%
    12:00 +30°C° 0 mm 3 mps 686 mmHg 25%
    13:00 +30°C° 0 mm 3 mps 685 mmHg 24%
    14:00 +31°C° 0 mm 3 mps 685 mmHg 24%
    15:00 +31°C° 0 mm 3 mps 685 mmHg 23%
    16:00 +30°C° 0.3 mm 3 mps 685 mmHg 27%
    17:00 +29°C° 0.3 mm 3 mps 685 mmHg 30%
    18:00 +28°C° 0.3 mm 3 mps 685 mmHg 34%
    19:00 +26°C° 0.4 mm 3 mps 685 mmHg 39%
    20:00 +24°C° 0.4 mm 2 mps 685 mmHg 45%
    21:00 +20°C° 0.4 mm 2 mps 685 mmHg 51%
    22:00 +20°C° 0.1 mm 2 mps 685 mmHg 50%
    23:00 +20°C° 0.1 mm 2 mps 685 mmHg 49%

    Tomorrow, 20 May, Monday

    Time Temperature Precipitation Wind Pressure Humidity
    00:00 +19°C° 0.1 mm 2 mps 685 mmHg 48%
    01:00 +19°C° 0.1 mm 2 mps 685 mmHg 48%
    02:00 +18°C° 0.1 mm 2 mps 685 mmHg 48%
    03:00 +19°C° 0.1 mm 1 mps 685 mmHg 48%
    04:00 +19°C° 0.1 mm 1 mps 685 mmHg 48%
    05:00 +18°C° 0.1 mm 2 mps 685 mmHg 48%
    06:00 +19°C° 0.1 mm 2 mps 685 mmHg 48%
    07:00 +21°C° 0 mm 2 mps 685 mmHg 44%
    08:00 +23°C° 0 mm 2 mps 686 mmHg 39%
    09:00 +25°C° 0 mm 2 mps 686 mmHg 35%
    10:00 +26°C° 0 mm 2 mps 686 mmHg 32%
    11:00 +27°C° 0 mm 2 mps 686 mmHg 30%
    12:00 +28°C° 0 mm 2 mps 685 mmHg 27%
    13:00 +28°C° 0.1 mm 3 mps 685 mmHg 27%
    14:00 +28°C° 0.1 mm 3 mps 685 mmHg 27%
    15:00 +29°C° 0.1 mm 3 mps 685 mmHg 27%
    16:00 +28°C° 0.3 mm 3 mps 686 mmHg 30%
    17:00 +27°C° 0.3 mm 3 mps 686 mmHg 33%
    18:00 +26°C° 0.3 mm 3 mps 686 mmHg 36%
    19:00 +25°C° 0.3 mm 2 mps 686 mmHg 42%
    20:00 +23°C° 0.3 mm 1 mps 687 mmHg 47%
    21:00 +20°C° 0.3 mm 0 mps 687 mmHg 53%
    22:00 +21°C° 0.1 mm 1 mps 687 mmHg 54%
    23:00 +19°C° 0.1 mm 2 mps 687 mmHg 56%

    Day after tomorrow, 21 May, Tuesday

    Time Temperature Precipitation Wind Pressure Humidity
    00:00 +18°C° 0.1 mm 2 mps 687 mmHg 57%
    01:00 +18°C° 0.1 mm 2 mps 687 mmHg 60%
    02:00 +17°C° 0.1 mm 2 mps 687 mmHg 63%
    03:00 +16°C° 0.1 mm 2 mps 687 mmHg 66%
    04:00 +18°C° 0.1 mm 1 mps 687 mmHg 65%
    05:00 +18°C° 0.1 mm 1 mps 687 mmHg 64%
    06:00 +18°C° 0.1 mm 1 mps 688 mmHg 63%
    07:00 +20°C° 0.1 mm 1 mps 688 mmHg 58%
    08:00 +21°C° 0.1 mm 1 mps 688 mmHg 52%
    09:00 +22°C° 0.1 mm 1 mps 689 mmHg 47%
    10:00 +23°C° 0.1 mm 1 mps 689 mmHg 43%
    11:00 +24°C° 0.1 mm 1 mps 689 mmHg 40%
    12:00 +25°C° 0.1 mm 1 mps 689 mmHg 36%
    13:00 +26°C° 0.1 mm 2 mps 689 mmHg 35%
    14:00 +26°C° 0.1 mm 2 mps 689 mmHg 33%
    15:00 +27°C° 0.1 mm 2 mps 689 mmHg 32%
    16:00 +26°C° 0.1 mm 2 mps 689 mmHg 34%
    17:00 +26°C° 0.1 mm 3 mps 689 mmHg 36%
    18:00 +25°C° 0.1 mm 3 mps 689 mmHg 38%
    19:00 +22°C° 0 mm 3 mps 689 mmHg 44%
    20:00 +20°C° 0 mm 2 mps 689 mmHg 50%
    21:00 +19°C° 0 mm 2 mps 690 mmHg 56%
    22:00 +18°C° 0 mm 2 mps 690 mmHg 59%
    23:00 +17°C° 0 mm 2 mps 690 mmHg 61%

    22 May, Wednesday

    Time Temperature Precipitation Wind Pressure Humidity
    00:00 +17°C° 0 mm 2 mps 690 mmHg 64%
    01:00 +16°C° 0 mm 1 mps 690 mmHg 65%
    02:00 +16°C° 0 mm 1 mps 689 mmHg 65%
    03:00 +15°C° 0 mm 1 mps 689 mmHg 66%
    04:00 +16°C° 0 mm 1 mps 690 mmHg 64%
    05:00 +18°C° 0 mm 1 mps 690 mmHg 62%
    06:00 +18°C° 0 mm 1 mps 690 mmHg 60%
    07:00 +20°C° 0 mm 1 mps 690 mmHg 55%
    08:00 +20°C° 0 mm 2 mps 690 mmHg 49%
    09:00 +21°C° 0 mm 2 mps 689 mmHg 43%
    10:00 +24°C° 0 mm 2 mps 689 mmHg 41%
    11:00 +25°C° 0 mm 2 mps 689 mmHg 39%
    12:00 +26°C° 0 mm 3 mps 689 mmHg 37%
    13:00 +26°C° 0.1 mm 3 mps 688 mmHg 37%
    14:00 +26°C° 0.1 mm 3 mps 688 mmHg 37%
    15:00 +26°C° 0.1 mm 3 mps 688 mmHg 37%
    16:00 +26°C° 0.4 mm 3 mps 688 mmHg 40%
    17:00 +25°C° 0.4 mm 2 mps 688 mmHg 43%
    18:00 +24°C° 0.4 mm 2 mps 688 mmHg 46%
    19:00 +23°C° 0.1 mm 2 mps 688 mmHg 52%
    20:00 +21°C° 0.1 mm 1 mps 688 mmHg 57%
    21:00 +17°C° 0.1 mm 0 mps 688 mmHg 63%
    22:00 +19°C° 0 mm 1 mps 688 mmHg 64%
    23:00 +19°C° 0 mm 1 mps 688 mmHg 64%

    23 May, Thursday

    Time Temperature Precipitation Wind Pressure Humidity
    00:00 +18°C° 0 mm 1 mps 688 mmHg 64%
    01:00 +18°C° 0 mm 1 mps 687 mmHg 65%
    02:00 +16°C° 0 mm 2 mps 687 mmHg 66%
    03:00 +16°C° 0 mm 2 mps 687 mmHg 66%
    04:00 +16°C° 0 mm 2 mps 687 mmHg 64%
    05:00 +17°C° 0 mm 2 mps 687 mmHg 61%
    06:00 +17°C° 0 mm 2 mps 688 mmHg 58%
    07:00 +19°C° 0 mm 2 mps 688 mmHg 51%
    08:00 +21°C° 0 mm 2 mps 688 mmHg 43%
    09:00 +24°C° 0 mm 1 mps 688 mmHg 36%
    10:00 +25°C° 0 mm 2 mps 688 mmHg 33%
    11:00 +26°C° 0 mm 2 mps 687 mmHg 30%
    12:00 +27°C° 0 mm 2 mps 687 mmHg 28%
    13:00 +28°C° 0 mm 2 mps 687 mmHg 26%
    14:00 +29°C° 0 mm 2 mps 687 mmHg 25%
    15:00 +29°C° 0 mm 2 mps 687 mmHg 24%
    16:00 +29°C° 0 mm 2 mps 687 mmHg 26%
    17:00 +29°C° 0 mm 2 mps 687 mmHg 27%
    18:00 +28°C° 0 mm 2 mps 687 mmHg 29%
    19:00 +26°C° 0 mm 2 mps 687 mmHg 33%
    20:00 +24°C° 0 mm 2 mps 687 mmHg 36%
    21:00 +21°C° 0 mm 2 mps 687 mmHg 40%
    22:00 +20°C° 0 mm 2 mps 688 mmHg 41%
    23:00 +20°C° 0 mm 2 mps 688 mmHg 42%

    24 May, Friday

    Time Temperature Precipitation Wind Pressure Humidity
    00:00 +19°C° 0 mm 2 mps 688 mmHg 43%
    01:00 +19°C° 0 mm 2 mps 687 mmHg 44%
    02:00 +18°C° 0 mm 2 mps 687 mmHg 45%
    03:00 +18°C° 0 mm 2 mps 687 mmHg 46%
    04:00 +18°C° 0 mm 2 mps 687 mmHg 46%
    05:00 +19°C° 0 mm 2 mps 688 mmHg 46%
    06:00 +20°C° 0 mm 1 mps 688 mmHg 46%
    07:00 +22°C° 0 mm 1 mps 688 mmHg 41%
    08:00 +24°C° 0 mm 1 mps 688 mmHg 37%
    09:00 +25°C° 0 mm 1 mps 688 mmHg 32%
    10:00 +27°C° 0 mm 2 mps 688 mmHg 31%
    11:00 +28°C° 0 mm 2 mps 688 mmHg 29%
    12:00 +29°C° 0 mm 2 mps 688 mmHg 28%
    13:00 +29°C° 0 mm 2 mps 688 mmHg 28%
    14:00 +30°C° 0 mm 2 mps 688 mmHg 28%
    15:00 +30°C° 0 mm 2 mps 688 mmHg 29%
    16:00 +29°C° 0.2 mm 1 mps 688 mmHg 32%
    17:00 +28°C° 0.2 mm 1 mps 688 mmHg 36%
    18:00 +28°C° 0.2 mm 1 mps 688 mmHg 40%
    19:00 +26°C° 0 mm 1 mps 688 mmHg 44%
    20:00 +24°C° 0 mm 1 mps 689 mmHg 48%
    21:00 +23°C° 0 mm 1 mps 689 mmHg 52%
    22:00 +22°C° 0 mm 1 mps 689 mmHg 53%
    23:00 +21°C° 0 mm 1 mps 689 mmHg 55%
    Show more